Temperature
9 9 9 8 7 6 5 5 5 4 4 4 4 4 4 4 4 3 3 3 3 3 2 2 2 1 1 0 -0 -0 0 0 0 0 1 1 2 2 2 2 3 3 3
9 9 8 7 6 5 5 5 4 4 4 4 4 4 4 4 4 3 3 3 3 2 2 2 1 1 -0 -1 -1 -1 -1 -1 -1 -1 -0 1 1 2 2 2 2 3 3
8 7 7 5 5 5 5 4 4 4 4 4 4 4 4 4 4 3 3 3 2 2 1 1 0 -1 -1 -1 -1 -1 -1 -1 -1 -1 -0 0 1 1 2 2 2 2 2
7 6 6 5 5 5 5 4 4 4 4 4 4 4 4 4 3 3 2 2 2 1 0 -0 -1 -1 -2 -2 -2 -2 -2 -2 -1 -1 -1 0 1 1 2 2 2 2 2
6 6 5 5 5 5 4 4 4 4 4 4 4 4 3 3 2 2 1 1 0 -0 -1 -1 -1 -2 -2 -2 -2 -2 -2 -1 -1 -1 -1 0 1 1 1 1 1 1 2
6 5 5 5 5 5 5 4 4 4 4 3 3 2 2 2 1 1 0 -1 -1 -1 -1 -2 -2 -2 -2 -2 -1 -1 -1 -1 -1 -1 -0 0 1 1 1 1 1 1 1
5 5 5 5 5 5 5 4 4 3 3 2 1 1 1 0 -0 -1 -1 -1 -2 -2 -2 -2 -1 -1 -1 -1 -1 -1 -1 -1 -1 -1 -0 -0 0 0 0 0 1 1 1
5 5 5 5 5 4 4 3 3 2 1 1 0 -0 -1 -1 -2 -2 -2 -2 -2 -2 -1 -1 -1 -1 -1 -1 -1 -1 -1 -1 -0 -0 -0 -0 0 0 0 1 1 1 1
5 5 5 5 4 3 3 2 1 1 0 0 -0 -1 -1 -2 -2 -2 -2 -2 -2 -1 -1 -1 -1 -1 -1 -1 -1 -1 -1 -0 -0 -0 0 0 0 1 1 1 1 1 1
5 4 4 4 3 2 2 1 0 0 -0 -0 -1 -1 -2 -2 -2 -2 -2 -2 -2 -1 -1 -1 -1 -1 -1 -1 -1 -1 -0 -0 0 0 0 0 1 1 1 1 1 1 1
4 4 3 3 2 1 0 -0 -0 -0 -1 -1 -1 -1 -2 -2 -2 -2 -2 -2 -1 -1 -1 -1 -1 -1 -1 -0 -0 0 0 0 0 0 0 0 1 1 1 1 1 1 1
3 3 2 2 1 1 -0 -1 -1 -1 -1 -1 -1 -1 -1 -2 -1 -1 -1 -1 -1 -1 -1 -1 -1 -0 -0 0 0 1 1 0 0 0 0 0 0 0 0 0 0 0 0
3 2 1 1 0 -0 -0 -0 -1 -1 -1 -2 -2 -2 -2 -1 -1 -1 -1 -1 -1 -1 -1 -1 -0 -0 0 0 0 0 0 0 0 0 -0 -0 -0 -0 -0 -0 -0 -0 -0
2 2 1 1 1 -0 -1 -1 -1 -2 -2 -2 -2 -2 -2 -2 -1 -1 -1 -1 -1 -1 -1 -0 -0 -0 -0 -0 0 0 0 0 -0 -0 -0 -0 -0 -1 -1 -1 -1 -1 -1
2 1 1 1 0 -0 -1 -2 -2 -2 -2 -2 -2 -2 -2 -2 -1 -1 -1 -1 -1 -1 -0 -0 -0 -0 -0 -0 0 -0 -0 -0 -0 -0 -0 -1 -1 -1 -1 -1 -1 -1 -1
2 2 2 1 0 -0 -1 -1 -2 -2 -2 -2 -2 -2 -2 -2 -1 -1 -1 -1 -1 -1 -0 -0 -0 -0 -0 -0 -0 -0 -0 -0 -0 -0 -0 -1 -1 -1 -1 -1 -1 -1 -1
1 1 1 1 0 -1 -1 -1 -1 -1 -2 -2 -2 -2 -2 -1 -1 -1 -1 -1 -1 -1 -0 -0 -0 -0 -0 -0 -0 -0 -0 -0 -0 -0 -0 -0 -1 -1 -1 -1 -1 -1 -1
1 1 1 0 -0 -1 -1 -1 -1 -2 -2 -2 -2 -2 -1 -1 -1 -1 -1 -1 -1 -1 -1 -1 -0 -0 -0 -0 -0 -0 -0 -0 -0 -0 -0 -0 -0 -0 -0 -0 -0 -1 -1
1 1 1 0 -0 -1 -1 -1 -2 -2 -2 -2 -2 -2 -1 -1 -1 -1 -1 -1 -1 -1 -1 -1 -0 -0 -0 -0 -0 -0 -0 -0 -0 -0 -0 -0 -0 -0 -0 -0 -0 -0 -0
1 1 0 0 0 -0 -1 -1 -2 -2 -2 -2 -2 -2 -2 -2 -2 -2 -2 -2 -1 -1 -1 -1 -1 -0 -0 -0 -0 -0 -0 -0 -0 -0 -0 0 0 0 0 0 0 0 0
2 1 1 1 0 -0 -0 -1 -1 -2 -2 -2 -2 -2 -2 -2 -2 -2 -2 -2 -1 -1 -1 -1 -1 -1 -0 -0 -0 -0 -0 -0 -0 -0 0 0 0 1 1 1 1 1 1
2 2 1 1 1 -0 -0 -1 -1 -1 -2 -2 -2 -2 -2 -2 -2 -2 -2 -2 -1 -1 -1 -1 -1 -1 -1 -1 -0 -0 -0 -0 -0 0 0 0 1 1 1 1 1 1 1
2 2 2 1 1 0 0 -0 -1 -1 -1 -2 -2 -2 -2 -2 -2 -2 -2 -1 -1 -1 -1 -1 -1 -1 -1 -1 -1 -1 -1 -0 -0 -0 0 0 1 1 1 1 1 1 1
3 2 2 2 1 1 0 -0 -1 -1 -1 -2 -2 -2 -2 -2 -2 -2 -2 -1 -1 -1 -1 -1 -1 -1 -1 -1 -1 -1 -0 -0 -0 0 0 1 1 1 1 1 1 1 1
3 2 2 2 1 1 0 -0 -1 -1 -1 -2 -2 -2 -2 -2 -2 -2 -2 -1 -1 -1 -1 -1 -1 -1 -1 -1 -1 -1 -1 -0 -0 0 0 1 1 1 1 1 1 2 2
2 2 2 1 1 0 0 -0 -1 -1 -1 -2 -2 -2 -2 -2 -3 -2 -2 -2 -1 -1 -1 -1 -1 -1 -1 -1 -1 -1 -0 -0 -0 0 1 1 1 1 1 1 2 2 2
Wind_Speed
9 7 6 5 3 1 1 2 3 4 5 7 8 8 9 10 10 10 12 13 13 14 14 15 15 15 14 13 14 15 15 15 17 17 16 17 20 18 15 16 18 17 17
8 7 5 3 1 2 2 3 4 6 7 8 9 10 11 11 11 12 13 14 15 16 16 16 17 15 16 15 14 16 15 15 16 19 16 16 18 17 16 17 15 16 16
7 6 4 2 1 2 4 5 6 8 9 10 11 12 13 13 13 13 14 14 15 16 16 17 17 17 17 16 16 16 14 14 14 15 16 15 14 14 15 16 17 14 15
6 4 3 1 1 3 5 6 8 9 11 12 12 13 14 14 13 13 13 14 15 16 16 16 17 17 17 17 15 15 14 15 15 14 14 14 13 15 14 13 13 12 11
5 3 2 1 2 4 6 8 9 10 11 11 11 12 12 11 8 10 13 16 16 17 17 17 17 18 19 17 14 15 15 13 13 13 14 14 14 13 13 11 11 11 12
3 1 1 1 4 6 7 7 8 8 9 9 9 10 10 7 8 10 13 16 17 17 16 16 16 17 17 18 20 21 20 17 16 15 14 16 17 16 13 11 10 10 8
2 0 1 3 5 6 6 6 7 7 7 8 8 9 10 5 5 9 14 16 16 15 15 15 14 14 17 16 16 18 19 22 23 19 18 19 19 17 14 13 11 11 9
1 1 3 4 4 4 5 6 6 7 7 8 8 9 10 7 4 8 16 16 14 14 15 16 16 16 16 16 16 16 17 18 18 16 14 16 16 16 14 13 11 7 4
1 3 4 4 4 4 5 6 7 8 8 9 8 9 10 9 6 9 14 14 13 15 16 16 17 17 15 15 17 17 17 16 13 12 13 14 14 14 11 7 5 4 3
3 4 5 5 5 5 5 6 7 7 8 9 9 9 10 10 8 10 13 12 12 13 14 16 17 16 16 17 16 15 15 14 10 8 6 5 6 5 5 1 1 2 1
4 5 5 5 4 5 5 6 7 7 7 8 9 9 9 10 11 8 12 13 12 13 13 13 13 15 17 18 16 11 12 10 7 4 3 4 4 5 7 7 5 3 2
5 5 5 4 4 5 5 6 6 8 8 9 10 11 9 10 11 12 15 16 17 14 13 12 12 17 18 15 9 6 5 3 1 2 3 4 5 6 7 8 9 9 8
5 5 4 4 4 5 5 6 6 7 8 9 9 10 11 11 11 13 15 17 18 14 12 16 18 17 13 7 9 10 7 4 4 4 5 6 6 6 6 6 7 9 12
5 4 4 4 5 5 5 6 6 7 8 9 9 10 11 11 11 12 12 12 13 12 12 13 14 11 8 8 8 8 7 6 5 6 6 6 6 7 7 6 7 7 9
5 4 4 5 5 4 6 6 7 7 7 7 8 9 10 10 13 18 13 11 12 13 12 8 7 7 7 7 7 6 6 6 7 7 7 7 7 8 8 7 8 9 9
5 5 5 5 6 6 6 4 1 3 4 6 8 9 10 12 17 18 19 18 17 18 11 9 8 8 7 7 7 7 7 8 8 8 8 8 8 8 8 8 9 10 10
8 7 6 7 7 7 7 7 7 4 2 4 7 12 14 16 17 18 19 17 15 15 10 9 9 8 7 7 7 7 8 8 8 8 8 8 8 8 8 8 9 10 11
8 7 8 8 8 7 7 7 7 8 9 9 8 12 16 16 15 17 18 14 12 12 11 10 9 8 7 7 7 7 7 8 8 8 8 8 8 8 8 9 10 12 12
9 8 8 8 7 7 6 6 7 8 8 9 10 12 15 15 13 15 15 11 11 11 11 10 10 9 8 7 7 7 8 8 8 8 8 8 8 8 8 10 11 13 14
9 8 8 7 7 7 7 7 7 8 8 8 9 11 12 11 11 12 11 11 11 11 11 10 10 10 8 7 7 7 7 7 7 8 8 7 7 7 9 11 11 11 11
7 6 1 7 8 8 7 7 7 7 8 8 8 10 14 10 10 12 11 11 10 10 10 10 9 9 9 8 7 7 7 7 7 7 8 8 8 8 8 10 11 11 11
7 7 8 9 8 8 8 8 8 8 8 9 9 9 12 10 10 10 10 10 10 9 9 9 9 8 8 8 7 7 6 6 6 6 7 7 8 8 9 9 10 10 11
7 8 8 8 8 7 8 9 9 9 9 9 9 9 10 10 10 10 10 10 10 9 11 10 9 9 10 9 9 7 6 5 5 4 5 6 8 8 9 10 12 12 12
7 8 8 8 8 9 9 9 9 10 10 10 10 10 10 10 10 11 10 10 9 10 12 11 10 12 14 12 10 10 10 8 6 3 5 7 8 8 9 10 11 13 13
8 8 9 9 9 9 9 9 10 10 10 10 10 11 11 11 11 11 11 10 10 10 13 14 13 13 14 14 13 12 13 13 11 7 6 7 9 9 10 10 10 11 11
8 9 9 8 9 9 9 9 9 10 10 10 10 10 11 11 12 12 12 11 10 10 12 13 15 16 16 14 14 14 14 14 13 11 6 7 8 8 9 9 11 10 11
Wind_Direction
133 126 117 112 109 110 263 276 281 286 289 286 290 293 292 292 292 290 290 294 293 293 292 291 292 292 292 291 291 287 282 279 279 281 280 280 279 277 279 278 277 276 272
134 127 121 123 151 250 267 280 278 278 282 287 289 290 290 290 291 290 292 296 297 297 297 297 297 298 294 292 288 286 285 284 280 281 280 279 278 279 279 280 279 277 276
131 129 131 160 223 268 280 281 282 283 284 288 289 289 290 291 292 293 295 298 300 300 301 300 299 298 294 291 290 288 286 282 277 279 282 283 280 278 279 277 278 277 279
127 125 132 177 259 278 285 288 288 290 290 292 293 295 297 299 298 303 307 307 304 302 301 298 295 293 292 292 289 285 281 280 278 279 282 283 282 280 278 279 281 283 285
121 128 143 196 267 284 293 297 298 299 300 305 306 308 310 308 335 340 321 310 308 304 302 300 298 298 294 288 284 284 284 283 282 282 282 283 282 282 281 283 284 288 286
117 136 149 286 294 301 307 311 316 322 328 330 329 325 322 334 38 356 324 313 309 306 306 304 301 295 292 289 282 280 280 281 283 282 282 281 282 284 285 283 280 281 281
130 143 323 314 316 324 332 344 351 351 349 341 335 331 328 356 46 341 326 313 306 306 304 300 297 295 293 290 289 287 282 276 273 275 277 279 283 285 285 280 272 271 268
130 334 339 339 346 4 13 17 5 354 346 339 335 336 331 345 36 331 325 311 310 307 303 299 295 293 291 290 291 287 283 280 275 275 275 279 280 281 276 271 271 267 256
37 14 15 15 27 33 30 16 3 350 346 338 345 342 335 338 7 326 319 319 312 310 307 304 302 299 294 286 290 289 287 286 281 274 276 280 285 287 277 255 239 235 232
45 48 54 55 53 45 30 9 2 350 351 347 354 344 338 335 334 309 313 321 312 311 308 304 298 296 297 293 293 289 286 290 302 312 315 322 324 341 358 327 248 231 236
73 80 78 75 64 42 24 12 0 357 1 355 351 345 341 334 327 324 321 325 320 313 308 307 307 305 301 299 294 284 276 283 299 315 350 6 16 30 38 41 38 28 18
92 92 83 61 36 32 19 10 8 0 0 0 354 349 346 340 333 335 320 313 314 313 310 312 315 315 314 316 318 320 309 303 46 64 48 37 40 44 47 49 53 55 54
96 87 72 53 36 20 9 13 15 14 5 359 353 348 345 341 338 334 322 317 316 318 317 319 320 323 330 350 22 29 40 59 69 64 56 49 45 50 53 55 61 65 59
84 73 59 38 37 41 20 26 22 16 8 358 352 345 340 337 343 343 335 330 329 330 330 327 326 338 7 26 34 45 51 50 55 62 60 54 51 52 51 50 57 62 63
74 63 49 46 42 43 50 34 22 35 15 352 350 342 338 341 339 331 334 340 342 339 333 339 356 7 29 38 42 45 50 53 56 57 59 58 57 57 58 58 63 65 65
71 57 46 43 42 39 37 51 112 9 349 331 341 346 347 342 334 339 344 342 342 341 349 4 11 20 30 35 40 47 53 56 57 60 60 59 61 61 62 62 66 67 67
61 47 45 41 44 40 29 18 15 15 343 342 3 359 352 344 345 349 349 344 352 354 7 11 15 22 28 33 39 46 55 60 59 60 62 62 63 62 63 64 67 71 70
68 57 44 49 42 36 28 21 16 10 8 7 15 14 354 346 351 356 352 355 8 8 9 10 14 19 23 31 40 48 57 61 60 61 64 64 63 63 63 63 65 74 75
50 46 44 43 41 38 29 24 21 19 15 6 4 6 355 351 359 6 3 12 9 6 4 6 11 16 20 29 41 50 56 59 61 62 64 65 65 66 68 72 75 75 78
71 37 15 38 41 41 38 30 26 21 17 11 11 8 357 359 8 8 9 9 8 4 1 3 8 14 18 25 36 47 55 58 61 60 58 60 63 66 72 75 78 80 80
64 69 49 40 41 37 37 33 30 27 21 16 16 16 3 7 8 5 6 5 5 1 358 359 4 10 15 20 33 47 53 54 56 55 52 54 60 64 69 73 78 82 85
48 43 41 40 42 35 30 38 34 32 27 21 15 16 12 13 11 8 4 2 360 359 357 358 3 7 9 15 24 42 52 52 52 51 49 50 55 61 67 73 77 82 89
42 40 42 41 40 44 37 40 37 34 30 27 23 19 16 14 11 8 5 2 360 1 1 3 5 7 10 18 25 30 39 43 41 41 49 57 62 65 67 71 77 85 87
42 39 40 41 39 40 39 38 38 37 33 28 27 26 23 18 15 14 12 6 5 6 8 7 7 9 14 18 23 29 25 19 18 45 70 77 74 75 76 77 81 87 86
44 40 42 42 38 38 39 39 36 34 33 30 27 25 25 23 21 19 16 12 12 12 13 13 11 10 13 20 23 23 20 23 23 24 82 85 85 83 84 84 86 92 95
48 45 44 45 43 38 37 37 37 34 32 29 27 25 24 23 23 21 19 16 15 14 14 13 13 19 19 20 18 20 24 25 21 11 43 84 88 86 90 91 93 92 94
Height
1514 1515 1516 1517 1518 1519 1520 1521 1520 1520 1519 1518 1517 1516 1514 1512 1510 1508 1505 1503 1500 1497 1494 1490 1486 1483 1479 1475 1472 1469 1465 1461 1454 1449 1448 1445 1442 1439 1437 1435 1433 1431 1429
1512 1513 1514 1515 1516 1517 1519 1519 1518 1517 1517 1516 1515 1513 1511 1508 1506 1503 1501 1498 1495 1491 1487 1483 1480 1476 1471 1468 1464 1460 1457 1453 1448 1442 1440 1438 1435 1433 1430 1428 1426 1424 1422
1509 1511 1512 1514 1515 1516 1517 1517 1516 1515 1514 1513 1511 1509 1507 1504 1501 1498 1495 1492 1488 1484 1480 1476 1472 1467 1463 1459 1456 1452 1449 1445 1441 1437 1433 1431 1428 1426 1424 1422 1419 1417 1415
1508 1510 1511 1513 1514 1515 1515 1515 1514 1513 1511 1509 1507 1504 1502 1499 1496 1492 1489 1485 1481 1477 1473 1468 1464 1459 1455 1452 1448 1444 1441 1438 1435 1431 1427 1425 1422 1420 1418 1416 1413 1410 1408
1507 1509 1511 1512 1513 1513 1513 1512 1511 1509 1507 1505 1502 1499 1496 1493 1489 1485 1482 1479 1474 1470 1465 1461 1456 1452 1448 1445 1441 1438 1435 1432 1429 1426 1422 1419 1416 1414 1412 1409 1406 1404 1401
1507 1509 1510 1511 1512 1511 1511 1509 1508 1506 1503 1500 1497 1494 1491 1488 1483 1479 1475 1471 1467 1463 1458 1454 1449 1445 1442 1439 1435 1432 1430 1427 1423 1420 1416 1413 1409 1408 1405 1403 1400 1397 1395
1507 1509 1510 1510 1510 1509 1508 1506 1504 1501 1498 1496 1493 1490 1487 1483 1477 1473 1469 1464 1461 1457 1453 1449 1444 1441 1437 1433 1429 1426 1423 1420 1417 1414 1409 1406 1402 1399 1397 1394 1393 1391 1390
1507 1509 1509 1509 1508 1507 1505 1503 1501 1498 1495 1492 1489 1486 1482 1479 1474 1469 1465 1461 1458 1454 1449 1445 1440 1435 1431 1428 1423 1419 1415 1412 1409 1406 1402 1398 1394 1391 1388 1387 1386 1386 1385
1507 1508 1508 1507 1507 1505 1503 1500 1498 1495 1493 1490 1487 1483 1480 1476 1472 1467 1463 1458 1454 1450 1445 1440 1435 1430 1426 1421 1417 1412 1408 1405 1403 1400 1396 1392 1388 1384 1382 1382 1382 1382 1382
1507 1507 1506 1506 1505 1503 1501 1498 1496 1494 1491 1488 1485 1481 1478 1474 1470 1466 1461 1456 1451 1446 1440 1435 1430 1425 1419 1415 1410 1406 1402 1400 1398 1395 1392 1388 1385 1382 1381 1380 1380 1381 1381
1506 1506 1505 1504 1503 1501 1499 1497 1495 1493 1490 1487 1484 1480 1477 1473 1469 1465 1460 1455 1449 1442 1436 1430 1425 1420 1414 1409 1405 1401 1398 1397 1395 1393 1391 1388 1386 1384 1382 1381 1380 1380 1380
1506 1505 1505 1504 1503 1501 1499 1497 1495 1492 1490 1487 1483 1480 1476 1472 1468 1463 1458 1453 1447 1440 1433 1427 1421 1416 1410 1405 1402 1399 1397 1395 1395 1393 1392 1390 1388 1386 1385 1383 1382 1381 1380
1506 1506 1505 1503 1502 1500 1499 1498 1495 1492 1490 1486 1483 1479 1475 1471 1467 1462 1456 1450 1444 1438 1432 1425 1420 1414 1409 1406 1403 1400 1398 1397 1397 1396 1395 1393 1392 1390 1388 1387 1385 1384 1382
1507 1506 1505 1504 1503 1501 1499 1498 1495 1493 1490 1487 1483 1479 1475 1470 1466 1460 1454 1449 1443 1437 1431 1425 1420 1415 1412 1409 1406 1404 1403 1401 1401 1400 1399 1397 1396 1394 1392 1391 1390 1388 1386
1508 1507 1506 1505 1504 1502 1500 1498 1496 1493 1490 1487 1484 1480 1475 1471 1466 1461 1455 1449 1443 1437 1431 1426 1422 1418 1416 1413 1411 1409 1408 1406 1405 1404 1403 1402 1400 1399 1398 1397 1395 1394 1392
1510 1509 1508 1507 1505 1503 1501 1499 1496 1494 1491 1488 1485 1481 1477 1473 1467 1462 1456 1451 1445 1439 1434 1429 1426 1423 1420 1418 1416 1414 1413 1411 1410 1409 1408 1407 1406 1405 1404 1403 1402 1400 1399
1511 1510 1509 1507 1506 1503 1502 1500 1498 1496 1493 1490 1486 1482 1478 1473 1468 1463 1458 1452 1447 1442 1437 1433 1430 1428 1426 1424 1422 1420 1418 1417 1416 1415 1414 1413 1412 1411 1410 1409 1409 1407 1406
1514 1512 1511 1509 1507 1505 1503 1502 1500 1497 1494 1491 1488 1483 1479 1474 1470 1465 1459 1454 1450 1445 1441 1438 1435 1433 1431 1429 1427 1425 1424 1423 1422 1421 1420 1419 1419 1418 1417 1416 1415 1414 1413
1516 1514 1513 1512 1510 1508 1506 1504 1502 1499 1496 1493 1489 1485 1481 1477 1472 1468 1462 1458 1453 1450 1446 1443 1440 1438 1436 1434 1432 1431 1429 1429 1428 1427 1426 1426 1425 1425 1424 1423 1423 1422 1422
1518 1516 1515 1515 1513 1510 1508 1506 1504 1501 1498 1495 1491 1487 1483 1478 1474 1470 1466 1461 1458 1454 1451 1448 1445 1442 1440 1439 1437 1436 1435 1434 1434 1433 1432 1432 1432 1431 1431 1431 1430 1430 1430
1523 1521 1519 1517 1515 1513 1511 1508 1506 1503 1500 1497 1494 1490 1486 1482 1478 1473 1469 1465 1462 1458 1455 1453 1450 1448 1445 1444 1442 1441 1440 1439 1439 1439 1438 1438 1438 1438 1437 1437 1437 1437 1437
1526 1524 1523 1520 1518 1516 1513 1511 1509 1506 1503 1500 1497 1494 1490 1486 1481 1477 1473 1469 1466 1463 1460 1457 1455 1452 1450 1448 1447 1446 1445 1444 1444 1444 1444 1444 1444 1444 1444 1444 1444 1444 1445
1529 1527 1525 1523 1521 1519 1516 1514 1511 1509 1506 1503 1500 1496 1493 1489 1485 1481 1477 1473 1470 1467 1464 1462 1459 1457 1455 1453 1452 1451 1450 1450 1450 1449 1450 1450 1450 1450 1450 1450 1450 1451 1452
1531 1529 1527 1526 1524 1521 1519 1517 1514 1511 1509 1506 1503 1500 1496 1493 1490 1486 1482 1478 1474 1471 1469 1466 1464 1462 1461 1459 1458 1457 1456 1455 1454 1455 1455 1455 1456 1456 1456 1456 1457 1457 1458
1534 1532 1530 1528 1526 1524 1522 1520 1517 1515 1512 1509 1507 1504 1501 1497 1494 1490 1487 1483 1480 1477 1474 1471 1469 1467 1466 1464 1463 1462 1461 1461 1460 1460 1461 1461 1462 1462 1463 1463 1464 1464 1465
1536 1534 1533 1531 1528 1526 1524 1522 1520 1518 1515 1513 1510 1507 1505 1502 1498 1495 1491 1488 1485 1482 1479 1477 1475 1473 1471 1470 1469 1468 1467 1467 1466 1466 1466 1467 1467 1468 1469 1469 1470 1471 1472